Volver al catálogo

STARLINK-30711

ActivoComunicacionesVLEO
NORAD 57940·PAYLOAD·🇺🇸 United States

Lanzado Sep 25, 2023 desde Vandenberg Space Force Base

Loading…

Próximos Pases (próximas 24 horas)

TLE

ActualizadoSource: CelesTrak SupGP

Época: Sep 15, 2026, 01:55 UTC

1 57940C 23148F   26258.08034722 -.00045555  00000+0 -13458-2 0  2588
2 57940  53.1582 222.9047 0001403  93.3310 191.6405 15.34416348    10

Sigue STARLINK-30711 en tiempo real con AllMySat

Download on the App Store